Location: El Gallo
(32.4380°N, 116.9347°W)
Time: 20:11:01
(UTC+00:00)

Cosmos 2369 - Pass Details

Date: 01 October 2022
Orbit: 840 x 854 km, 71.0° (Epoch: 01 December)

Event Time Altitude Azimuth Distance (km) Brightness Sun altitude
Rises 12:57:04 0° 328° (NNW) 3,405 6.6 -10.3°
Reaches altitude 10° 12:59:43 10° 319° (NW) 2,464 5.8 -9.7°
Maximum altitude 13:04:43 34° 257° (WSW) 1,363 4.3 -8.7°
Drops below altitude 10° 13:09:43 10° 194° (SSW) 2,447 6.0 -7.6°
Sets 13:12:21 0° 185° (S) 3,377 6.8 -7.1°
